This is the latest recevied weather packets stored in our database for station/object N9WHM. If no packets are shown the sender has not sent any weather packets the latest 1 day(s).
| Time | Temp. | Humidity | Pressure | Rain* | Wind** | Luminosity | Snow |
|---|---|---|---|---|---|---|---|
| 1777992912 | 10.56° C | 42% | 1013.3 hPa | 0 mm | 3.13 m/s, 359° | 294 W/m² | - |
| 1777992610 | 10.56° C | 42% | 1013.2 hPa | 0 mm | 1.79 m/s, 98° | 231 W/m² | - |
| 1777992308 | 10.56° C | 42% | 1013.3 hPa | 0 mm | 2.24 m/s, 7° | 251 W/m² | - |
| 1777992005 | 10.56° C | 42% | 1013.4 hPa | 0 mm | 1.34 m/s, 47° | 286 W/m² | - |
| 1777991703 | 10.56° C | 43% | 1013.3 hPa | 0 mm | 2.68 m/s, 5° | 362 W/m² | - |
| 1777991399 | 10° C | 46% | 1013.1 hPa | 0 mm | 0.45 m/s, 69° | 417 W/m² | - |
| 1777991096 | 10° C | 49% | 1013.2 hPa | 0 mm | 1.79 m/s, 329° | 272 W/m² | - |
| 1777990793 | 10° C | 49% | 1013.1 hPa | 0 mm | 1.79 m/s, 349° | 229 W/m² | - |
| 1777990491 | 9.44° C | 49% | 1013 hPa | 0 mm | 1.79 m/s, 71° | 234 W/m² | - |
| 1777990188 | 9.44° C | 50% | 1013.1 hPa | 0 mm | 1.79 m/s, 55° | 152 W/m² | - |
| 1777989884 | 9.44° C | 51% | 1012.9 hPa | 0 mm | 0 m/s | 146 W/m² | - |
| 1777989581 | 9.44° C | 50% | 1012.9 hPa | 0 mm | 1.79 m/s, 62° | 132 W/m² | - |
| 1777989278 | 9.44° C | 52% | 1013 hPa | 0 mm | 0.45 m/s, 49° | 142 W/m² | - |
| 1777988974 | 8.89° C | 52% | 1012.7 hPa | 0 mm | 1.79 m/s, 33° | 141 W/m² | - |
| 1777988671 | 8.89° C | 52% | 1012.8 hPa | 0 mm | 0.45 m/s, 12° | 126 W/m² | - |
| 1777988367 | 8.89° C | 53% | 1012.8 hPa | 0 mm | 0 m/s | 139 W/m² | - |
| 1777988065 | 8.89° C | 53% | 1012.6 hPa | 0 mm | 0.45 m/s, 40° | 144 W/m² | - |
| 1777987760 | 8.33° C | 54% | 1012.6 hPa | 0 mm | 0.89 m/s, 46° | 146 W/m² | - |
| 1777987457 | 8.33° C | 54% | 1012.6 hPa | 0 mm | 1.34 m/s, 76° | 171 W/m² | - |
| 1777987155 | 8.33° C | 53% | 1012.4 hPa | 0 mm | 1.34 m/s, 36° | 141 W/m² | - |
| 1777986851 | 8.33° C | 53% | 1012.2 hPa | 0 mm | 3.13 m/s, 355° | 96 W/m² | - |
| 1777986549 | 8.33° C | 54% | 1012 hPa | 0 mm | 2.24 m/s, 347° | 182 W/m² | - |
| 1777986247 | 8.33° C | 55% | 1012.1 hPa | 0 mm | 1.34 m/s, 23° | 183 W/m² | - |
| 1777985944 | 7.78° C | 55% | 1011.9 hPa | 0 mm | 0.89 m/s, 38° | 136 W/m² | - |
| 1777985642 | 7.78° C | 56% | 1011.9 hPa | 0 mm | 1.79 m/s, 39° | 85 W/m² | - |
* Rain latest hour (hover to see other rain measurements)
** Current wind speed in m/s (hover to see current wind gust speed)